Regional Weather Roundup
Issued by NWS

Home | Current Version | Previous Version | Graphics & Text | Print | Product List | Glossary On
Versions: 1 2 3 4 5 6 7 8 9 10 11 12 13 14 15 16 17 18 19 20 21 22 23 24 25 26 27 28 29 30 31 32 33 34 35 36 37 38 39 40 41 42 43 44 45 46 47 48 49 50
000
ASUS43 KMPX 270001
RWRMN
WEATHER ROUNDUP FOR MINNESOTA
NATIONAL WEATHER SERVICE TWIN CITIES/CHANHASSEN MN
700 PM CDT WED APR 26 2017


NOTE: "FAIR" INDICATES FEW OR NO CLOUDS BELOW 12,000 FEET WITH NO
SIGNIFICANT WEATHER AND/OR OBSTRUCTIONS TO VISIBILITY. N/A MEANS
CURRENT SKY AND/OR WEATHER CONDITIONS ARE NOT AVAILABLE.

MNZ060>063-068>070-270100-
   Twin Cities Metro

CITY           SKY/WX    TMP DP  RH WIND       PRES   REMARKS
TWIN CITIES    CLOUDY    40  32  73 N12       29.57R
6HR MIN TEMP:  39; 6HR MAX TEMP:  42;

ST PAUL        CLOUDY    39  34  82 N10       29.58R
CRYSTAL        CLOUDY    38  31  76 N8        29.57R
BLAINE         LGT RAIN  39  39 100 N9G18     29.58R
LAKEVILLE      CLOUDY    37  34  87 NW12      29.56S
EDEN PRAIRIE   CLOUDY    39  32  76 NW9       29.57R
6HR MIN TEMP:  39; 6HR MAX TEMP:  42; 6HR PCP: TRACE;

SOUTH ST PAUL  CLOUDY    40  33  76 N9        29.56S
LAKE ELMO      CLOUDY    37  34  87 N10       29.57R
$$
MNZ001>005-007-008-013>017-022>024-027-028-270100-
   Northwest Minnesota

CITY           SKY/WX    TMP DP  RH WIND       PRES   REMARKS
BEMIDJI        LGT SNOW  27  24  88 NE9       29.66S WCI  18
HALLOCK        LGT SNOW  32  28  86 NE13      29.80S WCI  22
ROSEAU         LGT SNOW  32  27  80 NE22      29.78S WCI  19
WARROAD        LGT SNOW  30  27  86 NE21G31   29.78S WCI  17
THIEF RVR FALL LGT SNOW  29  27  92 NE17      29.74S FOG     WCI  17
CROOKSTON      LGT SNOW  30  28  93 NE10      29.76S VSB 1   WCI  21
FOSSTON        LGT SNOW  27  25  93 N17       29.70R WCI  14
DETROIT LAKES  CLOUDY    30  28  93 N5        29.66S WCI  25
MOORHEAD       DRIZZLE   28  27  93 N9        29.72S WCI  20
PARK RAPIDS    LGT SNOW  29  22  75 N12       29.63R WCI  19
MAHNOMEN       FLURRIES  28  25  91 N5        29.68S WCI  22
$$
MNZ006-009>011-018-025>026-270100-
   North Central Minnesota

CITY           SKY/WX    TMP DP  RH WIND       PRES   REMARKS
BAUDETTE       CLOUDY    28  22  78 N15G25    29.73S WCI  16
FLAG ISLAND    LGT SNOW  30  25  80 NE17G23   29.79S WCI  18
INTL FALLS     LGT SNOW  26  20  77 NE15G22   29.71F WCI  14
6HR MIN TEMP:  26; 6HR MAX TEMP:  28; 6HR PCP:  0.08;

WASKISH        LGT SNOW  28  25  86 NE9G18    29.70S WCI  20
BIG FORK       CLOUDY    28  21  74 N7        29.65F WCI  21
LONGVILLE      LGT SNOW  28  27  93 N5        29.61F WCI  23
GRAND RAPIDS   CLOUDY    28  24  85 N9        29.63F WCI  19
CRANE LAKE     LGT SNOW  25  19  80 N6        29.71S WCI  18
ORR            DRIZZLE   27  18  69 NE7       29.63F WCI  19
COOK           FLURRIES  25  19  80 N8G18     29.64F WCI  16
WALKER         LGT SNOW  27  23  86 N8        29.65R WCI  18
$$
MNZ012-019>021-037-270100-
   Northeast Minnesota

CITY           SKY/WX    TMP DP  RH WIND       PRES   REMARKS
DULUTH         CLOUDY    31  28  89 N10G21    29.56S WCI  22
6HR MIN TEMP:  31; 6HR MAX TEMP:  34; 6HR PCP:  0.02;

ELY            FLURRIES  23  19  86 N7        29.62F WCI  15
HIBBING        CLOUDY    27  23  85 N14       29.60F WCI  16
EVELETH        CLOUDY    28  21  76 N10       29.61F WCI  19
DULUTH HARBOR  CLOUDY    34  32  93 N16       29.60R WCI  23
TWO HARBORS    CLOUDY    34  28  80 N6        29.57R WCI  29
SILVER BAY     CLOUDY    28  27  93 N7        29.58R WCI  21
GRAND MARAIS     N/A     27  21  78 N13G36    29.56S WCI  16
G MARAIS ARPRT CLOUDY    19  14  79 N7        29.52F WCI  10
$$
MNZ029>031-032-039>041-046>048-054>057-064-270100-
   West Central Minnesota

CITY           SKY/WX    TMP DP  RH WIND       PRES   REMARKS
FERGUS FALLS   CLOUDY    30  27  86 N10       29.67S WCI  21
WHEATON        CLOUDY    30  25  80 NW16G22   29.71S WCI  19
MORRIS         CLOUDY    30  28  93 NW16      29.64S FOG     WCI  19
ALEXANDRIA     CLOUDY    31  27  85 N13       29.63S WCI  21
ELBOW LAKE     CLOUDY    31  29  92 N10       29.65F WCI  22
WADENA         MIX PCPN  28  27  93 N6        29.62F WCI  22
GLENWOOD       CLOUDY    30  27  86 N10       29.62S WCI  21
APPLETON       CLOUDY    34  28  80 NW16G23   29.65F WCI  23
BENSON         CLOUDY    36  28  75 N13G22    29.66R
ORTONVILLE     CLOUDY    30  25  80 N14G22    29.67S WCI  20
MADISON        CLOUDY    34  28  80 NW18G24   29.67S WCI  23
WILLMAR        CLOUDY    36  32  87 NW10      29.63R
$$
MNZ033>034-036-042>043-049>051-058-059-270100-
   Central Minnesota

CITY           SKY/WX    TMP DP  RH WIND       PRES   REMARKS
ST CLOUD       CLOUDY    33  30  88 N9        29.60R WCI  25
6HR MIN TEMP:  33; 6HR MAX TEMP:  36;

SAUK CENTRE    CLOUDY    31  28  88 N9        29.62R WCI  23
PAYNESVILLE    CLOUDY    32  33 100 N8        29.62R WCI  25
AITKIN         CLOUDY    32  27  80 N8        29.58F WCI  25
PINE RIVER     FLURRIES  28  27  93 N8        29.64F WCI  20
BRAINERD       CLOUDY    30  27  88 N9        29.60F WCI  22
STAPLES        LGT SNOW  28  27  93 N7        29.62F VSB 3/4 WCI  21
LONG PRAIRIE   CLOUDY    30  28  93 CALM      29.62R
LITTLE FALLS   CLOUDY    32  28  86 N6        29.61S FOG     WCI  26
LITCHFIELD     CLOUDY    36  34  93 VRB10     29.61R
BUFFALO        CLOUDY    36  31  82 NW7       29.61R
MAPLE LAKE     CLOUDY    36  32  87 NW12      29.61R
HUTCHINSON     CLOUDY    36  32  87 NW10G16   29.62R
$$
MNZ037-044-045-052-053-270100-
   East Central Minnesota

CITY           SKY/WX    TMP DP  RH WIND       PRES   REMARKS
PRINCETON      CLOUDY    36  32  87 NW9       29.59R
MORA           CLOUDY    34  30  86 N5        29.60R WCI  30
CAMBRIDGE      LGT SNOW  36  32  87 N9        29.57R
RUSH CITY      LGT RAIN  36  33  88 N7        29.59R
MOOSE LAKE     CLOUDY    34  30  86 N9G21     29.57R WCI  26
HINCKLEY       CLOUDY    34  32  93 N9        29.59R WCI  26
CLOQUET        LGT SNOW  30  28  93 N9G16     29.57S WCI  22
MCGREGOR       CLOUDY    32  30  93 N6        29.60R WCI  26
$$
MNZ071>073-080-081-089-090-097-098-270100-
   Southwest Minnesota

CITY           SKY/WX    TMP DP  RH WIND       PRES   REMARKS
MONTEVIDEO     CLOUDY    32  30  93 N12G20    29.65R WCI  23
GRANITE FALLS  CLOUDY    34  31  90 NW15G22   29.66S WCI  24
CANBY          CLOUDY    32  28  85 N17G24    29.68R WCI  21
MARSHALL       CLOUDY    31  28  89 NW20G25   29.65R WCI  19
REDWOOD FALLS  CLOUDY    35  29  78 NW16G22   29.63R WCI  25
OLIVIA         CLOUDY    34  32  93 NW14      29.62R WCI  24
PIPESTONE      CLOUDY    32  25  74 N13G24    29.64R WCI  22
WINDOM         CLOUDY    34  30  86 NW20G26   29.62S WCI  22
WORTHINGTON    CLOUDY    33  29  85 NW17      29.63S WCI  22
JACKSON        CLOUDY    34  32  93 NW15      29.62R WCI  24
TRACY          CLOUDY    32  30  92 NW18      29.65R WCI  20
SLAYTON        CLOUDY    31  29  92 NW16G24   29.64R FOG     WCI  20
$$
MNZ065>067-074>077-082>085-091>093-270100-
   South Central Minnesota

CITY           SKY/WX    TMP DP  RH WIND       PRES   REMARKS
MANKATO        CLOUDY    37  32  82 NW13      29.59S
NEW ULM        DRIZZLE   36  32  87 N12       29.61R
ST JAMES       CLOUDY    36  34  93 W16       29.62R
FAIRMONT       CLOUDY    36  33  89 NW20      29.61R
GLENCOE        CLOUDY    37  35  94 NW9       29.60R
FARIBAULT      CLOUDY    39  36  87 NW8       29.57S
OWATONNA       CLOUDY    39  34  81 NW12      29.57S
WASECA         CLOUDY    37  34  87 NW12      29.59S
ALBERT LEA     CLOUDY    37  34  87 NW12G18   29.56S
$$
MNZ078>079-086>088-094>096-270100-
   Southeast Minnesota

CITY           SKY/WX    TMP DP  RH WIND       PRES   REMARKS
ROCHESTER      CLOUDY    39  36  89 NW16      29.53S
6HR MIN TEMP:  39; 6HR MAX TEMP:  40;

RED WING       CLOUDY    41  34  75 NW7       29.54F
STANTON        CLOUDY    40  34  77 NW9G16    29.55S
DODGE CENTER   CLOUDY    37  36  93 NW10      29.54S FOG
WINONA         CLOUDY    41  36  81 NW9       29.54R
AUSTIN         CLOUDY    39  34  81 NW13G20   29.54S
PRESTON        CLOUDY    38  35  86 NW14      29.53S
$$
ABBREVIATIONS USED IN REMARKS
   TC - TEMPERATURES IN CELSIUS
  WCI - WIND CHILL INDEX
   HX - HEAT INDEX
  VSB - VISIBILITY
$$




USA.gov is the U.S. government's official web portal to all federal, state and local government web resources and services.